Time,TemperatureF,DewpointF,PressureIn,WindDirection,WindDirectionDegrees,WindSpeedMPH,WindSpeedGustMPH,Humidity,HourlyPrecipIn,Conditions,Clouds,dailyrainin,SoftwareType,DateUTC
2013-09-08 00:12:00,60.0,52.0,29.70,SSW,192,2.0,8.0,75,0.00,,,0.00,,2013-09-08 06:12:00,
2013-09-08 00:21:00,61.0,52.0,29.71,SSE,168,6.0,12.0,71,0.00,,,0.00,,2013-09-08 06:21:00,
2013-09-08 00:53:00,60.0,51.0,29.74,SSE,155,2.0,4.0,72,0.00,,,0.00,,2013-09-08 06:53:00,
2013-09-08 01:12:00,61.0,52.0,29.75,South,182,0.0,5.0,71,0.00,,,0.00,,2013-09-08 07:12:00,
2013-09-08 01:23:00,61.0,52.0,29.75,WNW,298,5.0,9.0,73,0.00,,,0.00,,2013-09-08 07:23:00,
2013-09-08 01:52:00,62.0,53.0,29.73,NW,314,4.0,8.0,73,0.00,,,0.00,,2013-09-08 07:52:00,
2013-09-08 02:11:00,62.0,54.0,29.72,NNW,327,3.0,7.0,74,0.00,,,0.00,,2013-09-08 08:11:00,
2013-09-08 02:22:00,63.0,54.0,29.72,ESE,113,4.0,8.0,73,0.00,,,0.00,,2013-09-08 08:22:00,
2013-09-08 02:52:00,60.0,51.0,29.74,South,184,4.0,8.0,72,0.00,,,0.00,,2013-09-08 08:52:00,
2013-09-08 03:11:00,60.0,51.0,29.73,NW,322,5.0,8.0,71,0.00,,,0.00,,2013-09-08 09:11:00,
2013-09-08 03:22:00,60.0,51.0,29.71,NW,316,4.0,6.0,72,0.00,,,0.00,,2013-09-08 09:22:00,
2013-09-08 03:53:00,60.0,52.0,29.69,West,281,4.0,5.0,75,0.00,,,0.00,,2013-09-08 09:53:00,
2013-09-08 04:12:00,61.0,53.0,29.69,West,281,0.0,4.0,75,0.00,,,0.00,,2013-09-08 10:12:00,
2013-09-08 04:23:00,61.0,53.0,29.68,East,83,2.0,5.0,75,0.00,,,0.00,,2013-09-08 10:23:00,
2013-09-08 04:42:00,61.0,53.0,29.68,East,96,1.0,6.0,76,0.00,,,0.00,,2013-09-08 10:42:00,
2013-09-08 04:53:00,60.0,53.0,29.69,East,96,2.0,5.0,77,0.00,,,0.00,,2013-09-08 10:53:00,
2013-09-08 05:12:00,59.0,52.0,29.70,East,96,1.0,2.0,77,0.00,,,0.00,,2013-09-08 11:12:00,
2013-09-08 05:21:00,59.0,52.0,29.69,East,96,2.0,3.0,78,0.00,,,0.00,,2013-09-08 11:21:00,
2013-09-08 05:42:00,59.0,52.0,29.68,East,96,0.0,2.0,77,0.00,,,0.00,,2013-09-08 11:42:00,
2013-09-08 05:52:00,59.0,51.0,29.68,East,96,2.0,3.0,76,0.00,,,0.00,,2013-09-08 11:52:00,
2013-09-08 06:12:00,60.0,53.0,29.68,North,351,3.0,4.0,77,0.00,,,0.00,,2013-09-08 12:12:00,
2013-09-08 06:21:00,59.0,52.0,29.68,NNW,347,2.0,4.0,77,0.00,,,0.00,,2013-09-08 12:21:00,
2013-09-08 06:42:00,60.0,53.0,29.68,NNW,347,0.0,0.0,79,0.00,,,0.00,,2013-09-08 12:42:00,
2013-09-08 06:52:00,59.0,52.0,29.68,NNW,347,0.0,2.0,79,0.00,,,0.00,,2013-09-08 12:52:00,
2013-09-08 07:11:00,60.0,52.0,29.68,NNW,347,2.0,4.0,76,0.00,,,0.00,,2013-09-08 13:11:00,
2013-09-08 07:22:00,60.0,53.0,29.68,NNW,346,0.0,2.0,78,0.00,,,0.00,,2013-09-08 13:22:00,
2013-09-08 07:41:00,60.0,52.0,29.69,NNW,346,1.0,3.0,75,0.00,,,0.00,,2013-09-08 13:41:00,
2013-09-08 07:52:00,60.0,53.0,29.69,NNW,346,1.0,3.0,77,0.00,,,0.00,,2013-09-08 13:52:00,
2013-09-08 08:11:00,60.0,52.0,29.68,NNW,346,2.0,4.0,76,0.00,,,0.00,,2013-09-08 14:11:00,
2013-09-08 08:22:00,60.0,53.0,29.68,WNW,297,0.0,6.0,77,0.00,,,0.00,,2013-09-08 14:22:00,
2013-09-08 08:42:00,60.0,53.0,29.69,WNW,296,0.0,0.0,79,0.00,,,0.00,,2013-09-08 14:42:00,
2013-09-08 08:52:00,60.0,53.0,29.69,NE,45,2.0,4.0,79,0.00,,,0.00,,2013-09-08 14:52:00,
2013-09-08 09:12:00,60.0,53.0,29.69,NE,45,1.0,5.0,78,0.00,,,0.00,,2013-09-08 15:12:00,
2013-09-08 09:23:00,60.0,53.0,29.69,NE,45,1.0,3.0,78,0.00,,,0.00,,2013-09-08 15:23:00,
2013-09-08 09:45:00,60.0,53.0,29.68,NE,45,2.0,4.0,78,0.00,,,0.00,,2013-09-08 15:45:00,
2013-09-08 09:54:00,60.0,53.0,29.68,East,83,2.0,5.0,78,0.00,,,0.00,,2013-09-08 15:54:00,
2013-09-08 10:14:00,61.0,53.0,29.67,East,83,4.0,6.0,76,0.00,,,0.00,,2013-09-08 16:14:00,
2013-09-08 10:23:00,62.0,54.0,29.67,ESE,118,2.0,7.0,75,0.00,,,0.00,,2013-09-08 16:23:00,
2013-09-08 10:43:00,63.0,54.0,29.67,SE,133,2.0,4.0,73,0.00,,,0.00,,2013-09-08 16:43:00,
2013-09-08 10:53:00,63.0,53.0,29.67,SE,133,3.0,5.0,70,0.00,,,0.00,,2013-09-08 16:53:00,
2013-09-08 11:12:00,64.0,53.0,29.67,SSE,166,1.0,5.0,68,0.00,,,0.00,,2013-09-08 17:12:00,
2013-09-08 11:23:00,65.0,54.0,29.66,South,172,1.0,3.0,67,0.00,,,0.00,,2013-09-08 17:23:00,
2013-09-08 11:43:00,66.0,54.0,29.66,South,172,1.0,3.0,66,0.00,,,0.00,,2013-09-08 17:43:00,
2013-09-08 11:53:00,67.0,55.0,29.65,South,172,1.0,3.0,65,0.00,,,0.00,,2013-09-08 17:53:00,
2013-09-08 12:13:00,68.0,54.0,29.65,South,172,1.0,3.0,61,0.00,,,0.00,,2013-09-08 18:13:00,
2013-09-08 12:22:00,70.0,55.0,29.64,SSE,150,1.0,4.0,59,0.00,,,0.00,,2013-09-08 18:22:00,
2013-09-08 12:42:00,71.0,54.0,29.65,SSE,150,2.0,5.0,54,0.00,,,0.00,,2013-09-08 18:42:00,
2013-09-08 12:52:00,71.0,53.0,29.63,ENE,67,4.0,7.0,53,0.00,,,0.00,,2013-09-08 18:52:00,
2013-09-08 13:11:00,70.0,53.0,29.63,ENE,67,2.0,4.0,54,0.00,,,0.00,,2013-09-08 19:11:00,
2013-09-08 13:22:00,70.0,53.0,29.62,ENE,69,1.0,5.0,54,0.00,,,0.00,,2013-09-08 19:22:00,
2013-09-08 13:42:00,70.0,53.0,29.62,East,84,1.0,5.0,54,0.00,,,0.00,,2013-09-08 19:42:00,
2013-09-08 13:52:00,70.0,53.0,29.61,East,84,1.0,3.0,54,0.00,,,0.00,,2013-09-08 19:52:00,
2013-09-08 14:11:00,71.0,54.0,29.61,ENE,61,2.0,4.0,54,0.00,,,0.00,,2013-09-08 20:11:00,
2013-09-08 14:22:00,71.0,54.0,29.60,SSE,147,1.0,4.0,54,0.00,,,0.00,,2013-09-08 20:22:00,
2013-09-08 14:42:00,73.0,54.0,29.60,SE,139,1.0,4.0,52,0.00,,,0.00,,2013-09-08 20:42:00,
2013-09-08 14:53:00,73.0,53.0,29.60,SE,139,2.0,4.0,50,0.00,,,0.00,,2013-09-08 20:53:00,
2013-09-08 15:12:00,73.0,52.0,29.59,SE,139,1.0,3.0,48,0.00,,,0.00,,2013-09-08 21:12:00,
2013-09-08 15:22:00,74.0,54.0,29.59,ENE,68,1.0,4.0,49,0.00,,,0.00,,2013-09-08 21:22:00,
2013-09-08 15:43:00,73.0,52.0,29.58,ESE,107,1.0,4.0,48,0.00,,,0.00,,2013-09-08 21:43:00,
2013-09-08 15:54:00,73.0,53.0,29.58,ENE,75,2.0,5.0,49,0.00,,,0.00,,2013-09-08 21:54:00,
2013-09-08 16:13:00,73.0,52.0,29.57,ENE,75,0.0,3.0,48,0.00,,,0.00,,2013-09-08 22:13:00,
2013-09-08 16:24:00,73.0,52.0,29.57,ENE,61,3.0,5.0,48,0.00,,,0.00,,2013-09-08 22:24:00,
2013-09-08 16:43:00,73.0,52.0,29.57,ENE,57,3.0,8.0,48,0.00,,,0.00,,2013-09-08 22:43:00,
2013-09-08 16:53:00,73.0,52.0,29.57,ENE,65,7.0,11.0,48,0.00,,,0.00,,2013-09-08 22:53:00,
2013-09-08 17:12:00,73.0,52.0,29.56,NE,45,6.0,9.0,48,0.00,,,0.00,,2013-09-08 23:12:00,
2013-09-08 17:22:00,73.0,52.0,29.55,NE,41,4.0,7.0,48,0.00,,,0.00,,2013-09-08 23:22:00,
2013-09-08 17:52:00,75.0,46.0,29.55,ENE,63,6.0,11.0,36,0.00,,,0.00,,2013-09-08 23:52:00,
2013-09-08 18:11:00,75.0,45.0,29.54,NE,46,3.0,9.0,35,0.00,,,0.00,,2013-09-09 00:11:00,
2013-09-08 18:21:00,74.0,47.0,29.54,WNW,295,4.0,8.0,38,0.00,,,0.00,,2013-09-09 00:21:00,
2013-09-08 18:42:00,74.0,47.0,29.54,WNW,284,3.0,6.0,39,0.00,,,0.00,,2013-09-09 00:42:00,
2013-09-08 18:52:00,74.0,48.0,29.54,WSW,246,2.0,5.0,40,0.00,,,0.00,,2013-09-09 00:52:00,
2013-09-08 19:12:00,73.0,48.0,29.56,West,281,5.0,7.0,41,0.00,,,0.00,,2013-09-09 01:12:00,
2013-09-08 19:21:00,71.0,47.0,29.56,WNW,302,3.0,9.0,43,0.00,,,0.00,,2013-09-09 01:21:00,
2013-09-08 19:42:00,69.0,48.0,29.57,North,10,8.0,15.0,47,0.00,,,0.00,,2013-09-09 01:42:00,
2013-09-08 19:52:00,68.0,48.0,29.57,NNE,28,6.0,9.0,48,0.00,,,0.00,,2013-09-09 01:52:00,
2013-09-08 20:11:00,68.0,48.0,29.58,NNW,346,3.0,7.0,49,0.00,,,0.00,,2013-09-09 02:11:00,
2013-09-08 20:21:00,67.0,48.0,29.59,NNE,32,5.0,8.0,51,0.00,,,0.00,,2013-09-09 02:21:00,
2013-09-08 20:42:00,65.0,48.0,29.60,NE,44,4.0,7.0,54,0.00,,,0.00,,2013-09-09 02:42:00,
2013-09-08 20:52:00,64.0,50.0,29.60,NE,44,0.0,6.0,60,0.00,,,0.00,,2013-09-09 02:52:00,
2013-09-08 21:12:00,63.0,50.0,29.60,East,82,4.0,5.0,63,0.00,,,0.00,,2013-09-09 03:12:00,
2013-09-08 21:21:00,62.0,50.0,29.59,SE,129,3.0,8.0,64,0.00,,,0.00,,2013-09-09 03:21:00,
2013-09-08 21:44:00,62.0,50.0,29.59,SE,129,0.0,0.0,65,0.00,,,0.00,,2013-09-09 03:44:00,
2013-09-08 21:55:00,62.0,51.0,29.59,SE,129,2.0,4.0,66,0.00,,,0.00,,2013-09-09 03:55:00,
2013-09-08 22:14:00,62.0,51.0,29.57,SE,129,1.0,3.0,67,0.00,,,0.00,,2013-09-09 04:14:00,
2013-09-08 22:24:00,61.0,50.0,29.57,NW,309,5.0,7.0,66,0.00,,,0.00,,2013-09-09 04:24:00,
2013-09-08 22:43:00,61.0,50.0,29.58,WNW,296,4.0,7.0,67,0.00,,,0.00,,2013-09-09 04:43:00,
2013-09-08 22:54:00,61.0,50.0,29.57,NW,317,2.0,5.0,66,0.00,,,0.00,,2013-09-09 04:54:00,
2013-09-08 23:13:00,61.0,50.0,29.57,NW,317,0.0,3.0,68,0.00,,,0.00,,2013-09-09 05:13:00,
2013-09-08 23:23:00,61.0,50.0,29.57,SW,228,2.0,6.0,67,0.00,,,0.00,,2013-09-09 05:23:00,
2013-09-08 23:52:00,61.0,49.0,29.59,SW,227,2.0,5.0,64,0.00,,,0.00,,2013-09-09 05:52:00,